TAM3381 SBSV-SBGR

Flight info

Callsign TAM3381
Flight time 2h 8m
Altitude 36000
Route GILDO UZ21 VUNOX
Aircraft A319/M-SDE3FGHIRWY/LB1

Departure

Time 2026-05-06 23:03
Airport Deputado Luiz Eduardo Magalhães International Airport (SBSV)

Arrival

Time 2026-05-07 01:11
Airport São Paulo/Guarulhos–Governor André Franco Montoro International Airport (SBGR)
Time Latitude Longitude Altitude Speed Heading
2026-05-06 22:45 -12.91438 -38.33209 43 ft 0 kts 294°
2026-05-06 22:57 -12.91442 -38.33198 43 ft 2 kts 289°
2026-05-06 22:57 -12.91448 -38.33184 43 ft 2 kts 292°
2026-05-06 22:57 -12.91453 -38.33170 43 ft 2 kts 291°
2026-05-06 22:57 -12.91459 -38.33155 43 ft 2 kts 290°
2026-05-06 22:58 -12.91468 -38.33143 43 ft 2 kts 340°
2026-05-06 22:58 -12.91479 -38.33142 43 ft 0 kts 18°
2026-05-06 22:58 -12.91486 -38.33145 43 ft 1 kts 22°
2026-05-06 22:58 -12.91487 -38.33145 43 ft 0 kts 22°
2026-05-06 23:00 -12.91444 -38.33137 43 ft 11 kts 358°
2026-05-06 23:00 -12.91352 -38.33154 42 ft 14 kts 348°
2026-05-06 23:01 -12.91252 -38.33174 41 ft 14 kts 348°
2026-05-06 23:01 -12.91214 -38.33234 42 ft 12 kts 257°
2026-05-06 23:01 -12.91218 -38.33324 42 ft 13 kts 284°
2026-05-06 23:01 -12.91178 -38.33415 42 ft 14 kts 305°
2026-05-06 23:02 -12.91100 -38.33447 42 ft 11 kts 51°
2026-05-06 23:02 -12.91064 -38.33271 41 ft 55 kts 78°
2026-05-06 23:02 -12.90938 -38.32643 42 ft 122 kts 78°
2026-05-06 23:02 -12.90731 -38.31616 159 ft 163 kts 78°
2026-05-06 23:03 -12.90509 -38.30522 885 ft 157 kts 80°
2026-05-06 23:03 -12.90286 -38.29379 1400 ft 172 kts 81°
2026-05-06 23:03 -12.90047 -38.28120 1888 ft 189 kts 83°
2026-05-06 23:03 -12.90148 -38.26744 2430 ft 204 kts 116°
2026-05-06 23:04 -12.91058 -38.25655 3286 ft 208 kts 144°
2026-05-06 23:04 -12.92419 -38.25157 4119 ft 217 kts 173°
2026-05-06 23:04 -12.93912 -38.25463 4922 ft 229 kts 206°
2026-05-06 23:04 -12.95051 -38.26584 5710 ft 239 kts 236°
2026-05-06 23:05 -12.95893 -38.28073 6404 ft 249 kts 238°
2026-05-06 23:05 -12.96781 -38.29669 6932 ft 267 kts 238°
2026-05-06 23:05 -12.97742 -38.31370 7441 ft 285 kts 238°
2026-05-06 23:05 -12.98769 -38.33166 8050 ft 298 kts 238°
2026-05-06 23:06 -12.99826 -38.35007 8851 ft 302 kts 238°
2026-05-06 23:06 -13.00900 -38.36873 9644 ft 306 kts 238°
2026-05-06 23:06 -13.01955 -38.38767 10414 ft 309 kts 242°
2026-05-06 23:06 -13.02783 -38.40847 10889 ft 324 kts 252°
2026-05-06 23:07 -13.03309 -38.43123 11461 ft 333 kts 258°
2026-05-06 23:07 -13.03730 -38.45437 12181 ft 335 kts 259°
2026-05-06 23:07 -13.04143 -38.47785 12901 ft 336 kts 259°
2026-05-06 23:07 -13.04563 -38.50143 13620 ft 338 kts 259°
2026-05-06 23:08 -13.04991 -38.52508 14308 ft 339 kts 259°
2026-05-06 23:08 -13.05425 -38.54886 14974 ft 341 kts 259°
2026-05-06 23:08 -13.05866 -38.57281 15609 ft 344 kts 259°
2026-05-06 23:08 -13.06311 -38.59691 16232 ft 346 kts 259°
2026-05-06 23:09 -13.06759 -38.62117 16849 ft 348 kts 259°
2026-05-06 23:09 -13.07210 -38.64555 17458 ft 350 kts 259°
2026-05-06 23:09 -13.07659 -38.66994 18041 ft 352 kts 259°
2026-05-06 23:09 -13.08112 -38.69461 18620 ft 354 kts 259°
2026-05-06 23:10 -13.08639 -38.71929 19182 ft 356 kts 253°
2026-05-06 23:10 -13.09505 -38.74310 19750 ft 358 kts 245°
2026-05-06 23:10 -13.10713 -38.76555 20328 ft 360 kts 239°
2026-05-06 23:10 -13.12047 -38.78730 20889 ft 361 kts 238°
2026-05-06 23:11 -13.13402 -38.80906 21429 ft 363 kts 238°
2026-05-06 23:11 -13.14766 -38.83098 21948 ft 366 kts 238°
2026-05-06 23:11 -13.16112 -38.85270 22488 ft 367 kts 238°
2026-05-06 23:11 -13.17479 -38.87483 23024 ft 368 kts 238°
2026-05-06 23:12 -13.18853 -38.89711 23519 ft 371 kts 238°
2026-05-06 23:12 -13.20237 -38.91956 24018 ft 373 kts 238°
2026-05-06 23:12 -13.21626 -38.94214 24527 ft 375 kts 238°
2026-05-06 23:12 -13.23024 -38.96486 25008 ft 378 kts 238°
2026-05-06 23:13 -13.24431 -38.98774 25482 ft 381 kts 238°
2026-05-06 23:13 -13.25852 -39.01085 25922 ft 384 kts 238°
2026-05-06 23:13 -13.27280 -39.03409 26372 ft 386 kts 238°
2026-05-06 23:13 -13.28718 -39.05750 26814 ft 389 kts 238°
2026-05-06 23:14 -13.30165 -39.08109 27224 ft 392 kts 238°
2026-05-06 23:14 -13.31622 -39.10482 27656 ft 394 kts 238°
2026-05-06 23:14 -13.33087 -39.12869 28066 ft 396 kts 238°
2026-05-06 23:14 -13.34561 -39.15271 28466 ft 399 kts 238°
2026-05-06 23:15 -13.36042 -39.17687 28868 ft 401 kts 238°
2026-05-06 23:15 -13.37530 -39.20115 29257 ft 403 kts 238°
2026-05-06 23:15 -13.39005 -39.22522 29618 ft 405 kts 238°
2026-05-06 23:15 -13.40505 -39.24971 29987 ft 406 kts 238°
2026-05-06 23:16 -13.42048 -39.27404 30332 ft 408 kts 235°
2026-05-06 23:16 -13.43757 -39.29740 30639 ft 410 kts 231°
2026-05-06 23:16 -13.45637 -39.31954 30969 ft 412 kts 227°
2026-05-06 23:16 -13.47677 -39.34029 31304 ft 413 kts 223°
2026-05-06 23:17 -13.49863 -39.35947 31694 ft 412 kts 218°
2026-05-06 23:17 -13.52155 -39.37717 32117 ft 411 kts 217°
2026-05-06 23:17 -13.54457 -39.39444 32581 ft 408 kts 216°
2026-05-06 23:17 -13.56746 -39.41154 33018 ft 405 kts 216°
2026-05-06 23:18 -13.59025 -39.42858 33461 ft 404 kts 216°
2026-05-06 23:18 -13.61295 -39.44555 33896 ft 402 kts 216°
2026-05-06 23:18 -13.63553 -39.46245 34333 ft 400 kts 216°
2026-05-06 23:18 -13.65802 -39.47929 34743 ft 399 kts 217°
2026-05-06 23:19 -13.68043 -39.49609 35104 ft 398 kts 217°
2026-05-06 23:19 -13.70253 -39.51265 35425 ft 398 kts 217°
2026-05-06 23:19 -13.72493 -39.52947 35696 ft 399 kts 217°
2026-05-06 23:19 -13.74740 -39.54633 35952 ft 400 kts 217°
2026-05-06 23:20 -13.76991 -39.56324 36077 ft 402 kts 217°
2026-05-06 23:20 -13.81588 -39.59778 36084 ft 415 kts 217°
2026-05-06 23:21 -13.86312 -39.63329 36083 ft 423 kts 217°
2026-05-06 23:21 -13.91090 -39.66919 36087 ft 423 kts 217°
2026-05-06 23:22 -13.95846 -39.70498 36089 ft 422 kts 217°
2026-05-06 23:22 -14.00560 -39.74044 36092 ft 422 kts 217°
2026-05-06 23:23 -14.05302 -39.77615 36101 ft 421 kts 217°
2026-05-06 23:23 -14.10044 -39.81189 36097 ft 422 kts 217°
2026-05-06 23:24 -14.14797 -39.84772 36110 ft 422 kts 217°
2026-05-06 23:24 -14.19505 -39.88322 36102 ft 421 kts 217°
2026-05-06 23:25 -14.24236 -39.91893 36123 ft 421 kts 217°
2026-05-06 23:25 -14.28978 -39.95473 36125 ft 422 kts 216°
2026-05-06 23:26 -14.33715 -39.99051 36131 ft 421 kts 216°
2026-05-06 23:26 -14.38457 -40.02636 36134 ft 421 kts 216°
2026-05-06 23:27 -14.43189 -40.06214 36133 ft 421 kts 216°
2026-05-06 23:27 -14.47885 -40.09768 36135 ft 420 kts 216°
2026-05-06 23:28 -14.52608 -40.13343 36136 ft 420 kts 216°
2026-05-06 23:28 -14.57333 -40.16922 36142 ft 421 kts 216°
2026-05-06 23:29 -14.62063 -40.20507 36143 ft 421 kts 216°
2026-05-06 23:29 -14.66793 -40.24094 36145 ft 421 kts 216°
2026-05-06 23:30 -14.71525 -40.27684 36152 ft 421 kts 216°
2026-05-06 23:30 -14.76257 -40.31276 36155 ft 422 kts 216°
2026-05-06 23:31 -14.80987 -40.34870 36157 ft 421 kts 216°
2026-05-06 23:31 -14.85675 -40.38434 36165 ft 421 kts 216°
2026-05-06 23:32 -14.90405 -40.42032 36158 ft 421 kts 216°
2026-05-06 23:32 -14.95126 -40.45623 36158 ft 421 kts 216°
2026-05-06 23:33 -14.99849 -40.49218 36153 ft 421 kts 216°
2026-05-06 23:33 -15.04576 -40.52820 36147 ft 421 kts 216°
2026-05-06 23:34 -15.09299 -40.56421 36146 ft 421 kts 216°
2026-05-06 23:34 -15.14000 -40.60006 36146 ft 420 kts 216°
2026-05-06 23:35 -15.18714 -40.63604 36149 ft 421 kts 215°
2026-05-06 23:35 -15.23443 -40.67215 36148 ft 421 kts 216°
2026-05-06 23:36 -15.28155 -40.70814 36149 ft 420 kts 216°
2026-05-06 23:36 -15.32827 -40.74385 36160 ft 419 kts 216°
2026-05-06 23:37 -15.37531 -40.77983 36167 ft 419 kts 216°
2026-05-06 23:37 -15.42231 -40.81581 36174 ft 419 kts 216°
2026-05-06 23:38 -15.46932 -40.85180 36177 ft 419 kts 216°
2026-05-06 23:38 -15.51630 -40.88780 36177 ft 419 kts 216°
2026-05-06 23:39 -15.56325 -40.92378 36176 ft 419 kts 216°
2026-05-06 23:39 -15.60985 -40.95954 36179 ft 419 kts 216°
2026-05-06 23:40 -15.65682 -40.99559 36183 ft 419 kts 215°
2026-05-06 23:40 -15.70389 -41.03172 36184 ft 419 kts 215°
2026-05-06 23:41 -15.75083 -41.06781 36185 ft 419 kts 215°
2026-05-06 23:41 -15.79773 -41.10388 36189 ft 418 kts 215°
2026-05-06 23:42 -15.84459 -41.13992 36191 ft 418 kts 215°
2026-05-06 23:42 -15.89114 -41.17575 36190 ft 419 kts 215°
2026-05-06 23:43 -15.93796 -41.21183 36189 ft 418 kts 215°
2026-05-06 23:43 -15.98469 -41.24785 36192 ft 417 kts 215°
2026-05-06 23:44 -16.03140 -41.28385 36194 ft 417 kts 215°
2026-05-06 23:44 -16.07814 -41.31989 36179 ft 418 kts 215°
2026-05-06 23:45 -16.12460 -41.35575 36188 ft 416 kts 215°
2026-05-06 23:45 -16.17120 -41.39174 36187 ft 417 kts 215°
2026-05-06 23:46 -16.21779 -41.42774 36186 ft 417 kts 215°
2026-05-06 23:46 -16.26438 -41.46377 36181 ft 416 kts 215°
2026-05-06 23:47 -16.31085 -41.49972 36182 ft 415 kts 215°
2026-05-06 23:47 -16.35724 -41.53561 36171 ft 415 kts 215°
2026-05-06 23:48 -16.40361 -41.57153 36168 ft 415 kts 215°
2026-05-06 23:48 -16.44972 -41.60726 36165 ft 415 kts 215°
2026-05-06 23:49 -16.49606 -41.64322 36145 ft 415 kts 214°
2026-05-06 23:49 -16.54253 -41.67930 36158 ft 414 kts 215°
2026-05-06 23:50 -16.58879 -41.71520 36159 ft 414 kts 215°
2026-05-06 23:50 -16.65777 -41.76883 36166 ft 413 kts 215°
2026-05-06 23:51 -16.70389 -41.80467 36168 ft 413 kts 215°
2026-05-06 23:51 -16.75003 -41.84058 36167 ft 413 kts 215°
2026-05-06 23:52 -16.79609 -41.87647 36169 ft 412 kts 214°
2026-05-06 23:52 -16.84211 -41.91232 36166 ft 411 kts 215°
2026-05-06 23:53 -16.88799 -41.94809 36171 ft 410 kts 215°
2026-05-06 23:53 -16.93347 -41.98358 36173 ft 411 kts 215°
2026-05-06 23:54 -16.97932 -42.01939 36171 ft 410 kts 214°
2026-05-06 23:54 -17.02513 -42.05520 36167 ft 410 kts 214°
2026-05-06 23:55 -17.07085 -42.09096 36178 ft 410 kts 214°
2026-05-06 23:55 -17.11654 -42.12671 36180 ft 410 kts 214°
2026-05-06 23:56 -17.16223 -42.16247 36182 ft 409 kts 214°
2026-05-06 23:56 -17.20748 -42.19793 36179 ft 409 kts 214°
2026-05-06 23:57 -17.25307 -42.23366 36184 ft 409 kts 214°
2026-05-06 23:57 -17.29867 -42.26943 36186 ft 409 kts 214°
2026-05-06 23:58 -17.34424 -42.30522 36188 ft 409 kts 214°
2026-05-06 23:58 -17.38962 -42.34087 36193 ft 406 kts 214°
2026-05-06 23:59 -17.43491 -42.37649 36202 ft 407 kts 214°
2026-05-06 23:59 -17.48023 -42.41213 36207 ft 406 kts 214°
2026-05-07 00:00 -17.52542 -42.44765 36208 ft 405 kts 214°
2026-05-07 00:00 -17.57023 -42.48295 36212 ft 405 kts 214°
2026-05-07 00:01 -17.61533 -42.51851 36214 ft 405 kts 213°
2026-05-07 00:01 -17.66041 -42.55403 36214 ft 405 kts 214°
2026-05-07 00:02 -17.70549 -42.58958 36213 ft 405 kts 214°
2026-05-07 00:02 -17.75043 -42.62506 36231 ft 403 kts 213°
2026-05-07 00:03 -17.79511 -42.66034 36242 ft 402 kts 214°
2026-05-07 00:03 -17.83986 -42.69576 36252 ft 403 kts 213°
2026-05-07 00:04 -17.88469 -42.73117 36262 ft 402 kts 214°
2026-05-07 00:04 -17.92929 -42.76649 36276 ft 400 kts 214°
2026-05-07 00:05 -17.97384 -42.80177 36283 ft 400 kts 213°
2026-05-07 00:05 -18.01849 -42.83715 36288 ft 401 kts 213°
2026-05-07 00:06 -18.06267 -42.87220 36277 ft 400 kts 213°
2026-05-07 00:06 -18.10728 -42.90760 36260 ft 404 kts 213°
2026-05-07 00:07 -18.15253 -42.94348 36240 ft 406 kts 214°
2026-05-07 00:07 -18.19755 -42.97927 36234 ft 408 kts 213°
2026-05-07 00:08 -18.24293 -43.01540 36227 ft 407 kts 213°
2026-05-07 00:08 -18.28827 -43.05145 36223 ft 407 kts 214°
2026-05-07 00:09 -18.33351 -43.08752 36228 ft 407 kts 213°
2026-05-07 00:09 -18.37843 -43.12329 36234 ft 408 kts 214°
2026-05-07 00:10 -18.42351 -43.15954 36236 ft 407 kts 214°
2026-05-07 00:10 -18.46841 -43.19598 36234 ft 406 kts 214°
2026-05-07 00:11 -18.51326 -43.23230 36228 ft 405 kts 214°
2026-05-07 00:11 -18.55798 -43.26859 36224 ft 405 kts 214°
2026-05-07 00:12 -18.60253 -43.30471 36228 ft 407 kts 214°
2026-05-07 00:12 -18.64742 -43.34102 36224 ft 406 kts 213°
2026-05-07 00:13 -18.69263 -43.37682 36223 ft 405 kts 214°
2026-05-07 00:13 -18.73782 -43.41267 36223 ft 407 kts 213°
2026-05-07 00:14 -18.78306 -43.44862 36227 ft 406 kts 214°
2026-05-07 00:14 -18.82825 -43.48459 36224 ft 406 kts 214°
2026-05-07 00:15 -18.87332 -43.52048 36225 ft 407 kts 214°
2026-05-07 00:15 -18.91886 -43.55587 36228 ft 406 kts 213°
2026-05-07 00:16 -18.96467 -43.59088 36232 ft 406 kts 213°
2026-05-07 00:16 -19.01046 -43.62596 36241 ft 406 kts 213°
2026-05-07 00:17 -19.05613 -43.66106 36246 ft 405 kts 213°
2026-05-07 00:17 -19.10175 -43.69610 36246 ft 405 kts 213°
2026-05-07 00:18 -19.14750 -43.73132 36247 ft 405 kts 213°
2026-05-07 00:18 -19.19293 -43.76628 36239 ft 404 kts 213°
2026-05-07 00:19 -19.23859 -43.80146 36223 ft 405 kts 213°
2026-05-07 00:19 -19.28409 -43.83656 36215 ft 404 kts 213°
2026-05-07 00:20 -19.32925 -43.87138 36208 ft 404 kts 213°
2026-05-07 00:20 -19.37469 -43.90648 36205 ft 404 kts 213°
2026-05-07 00:21 -19.42021 -43.94167 36219 ft 404 kts 213°
2026-05-07 00:21 -19.46570 -43.97686 36219 ft 405 kts 213°
2026-05-07 00:22 -19.51126 -44.01212 36227 ft 405 kts 213°
2026-05-07 00:22 -19.55646 -44.04712 36232 ft 404 kts 213°
2026-05-07 00:23 -19.60219 -44.08224 36234 ft 405 kts 212°
2026-05-07 00:23 -19.64796 -44.11734 36236 ft 405 kts 213°
2026-05-07 00:24 -19.69370 -44.15248 36238 ft 405 kts 213°
2026-05-07 00:24 -19.73928 -44.18761 36240 ft 405 kts 213°
2026-05-07 00:25 -19.78452 -44.22259 36240 ft 404 kts 213°
2026-05-07 00:25 -19.83005 -44.25784 36237 ft 404 kts 213°
2026-05-07 00:26 -19.87550 -44.29303 36232 ft 404 kts 213°
2026-05-07 00:26 -19.92100 -44.32829 36229 ft 403 kts 213°
2026-05-07 00:27 -19.96640 -44.36349 36230 ft 403 kts 213°
2026-05-07 00:27 -20.01153 -44.39851 36232 ft 403 kts 213°
2026-05-07 00:28 -20.05687 -44.43373 36235 ft 402 kts 213°
2026-05-07 00:28 -20.10203 -44.46884 36237 ft 402 kts 213°
2026-05-07 00:29 -20.14756 -44.50423 36239 ft 402 kts 213°
2026-05-07 00:30 -20.23823 -44.57472 36234 ft 402 kts 213°
2026-05-07 00:30 -20.28347 -44.60995 36232 ft 403 kts 213°
2026-05-07 00:31 -20.32878 -44.64525 36231 ft 403 kts 213°
2026-05-07 00:31 -20.37402 -44.68055 36228 ft 403 kts 213°
2026-05-07 00:32 -20.41932 -44.71589 36230 ft 402 kts 213°
2026-05-07 00:32 -20.46457 -44.75125 36232 ft 403 kts 213°
2026-05-07 00:33 -20.50952 -44.78634 36236 ft 402 kts 213°
2026-05-07 00:33 -20.55468 -44.82158 36237 ft 402 kts 213°
2026-05-07 00:34 -20.59978 -44.85683 36240 ft 401 kts 213°
2026-05-07 00:34 -20.64488 -44.89210 36240 ft 401 kts 213°
2026-05-07 00:35 -20.68999 -44.92742 36238 ft 401 kts 213°
2026-05-07 00:35 -20.73510 -44.96275 36239 ft 402 kts 213°
2026-05-07 00:36 -20.77988 -44.99789 36239 ft 402 kts 213°
2026-05-07 00:36 -20.82489 -45.03330 36236 ft 400 kts 213°
2026-05-07 00:37 -20.86983 -45.06868 36239 ft 401 kts 214°
2026-05-07 00:37 -20.91475 -45.10406 36238 ft 400 kts 213°
2026-05-07 00:38 -20.95967 -45.13939 36235 ft 400 kts 213°
2026-05-07 00:38 -21.00425 -45.17451 36233 ft 400 kts 214°
2026-05-07 00:39 -21.04920 -45.20996 36236 ft 401 kts 214°
2026-05-07 00:39 -21.09421 -45.24549 36233 ft 401 kts 214°
2026-05-07 00:40 -21.13918 -45.28100 36240 ft 402 kts 214°
2026-05-07 00:40 -21.18429 -45.31665 36236 ft 402 kts 214°
2026-05-07 00:41 -21.22934 -45.35230 36238 ft 402 kts 214°
2026-05-07 00:41 -21.27434 -45.38792 36243 ft 402 kts 214°
2026-05-07 00:42 -21.31930 -45.42355 36241 ft 401 kts 214°
2026-05-07 00:42 -21.36430 -45.45923 36243 ft 402 kts 214°
2026-05-07 00:43 -21.40894 -45.49469 36245 ft 401 kts 214°
2026-05-07 00:43 -21.45387 -45.53035 36244 ft 401 kts 214°
2026-05-07 00:44 -21.49881 -45.56607 36239 ft 401 kts 214°
2026-05-07 00:44 -21.54391 -45.60151 36244 ft 401 kts 213°
2026-05-07 00:45 -21.58896 -45.63685 36247 ft 401 kts 213°
2026-05-07 00:45 -21.63377 -45.67203 36252 ft 400 kts 214°
2026-05-07 00:46 -21.67903 -45.70763 36251 ft 401 kts 214°
2026-05-07 00:46 -21.72418 -45.74316 36254 ft 401 kts 214°
2026-05-07 00:47 -21.76915 -45.77859 36249 ft 400 kts 214°
2026-05-07 00:47 -21.81420 -45.81411 36258 ft 401 kts 214°
2026-05-07 00:48 -21.85897 -45.84945 35902 ft 394 kts 214°
2026-05-07 00:48 -21.88109 -45.86689 34985 ft 397 kts 213°
2026-05-07 00:48 -21.90349 -45.88458 33840 ft 404 kts 214°
2026-05-07 00:49 -21.92586 -45.90226 32896 ft 406 kts 214°
2026-05-07 00:49 -21.94853 -45.92016 32179 ft 405 kts 214°
2026-05-07 00:49 -21.97131 -45.93815 31221 ft 410 kts 214°
2026-05-07 00:49 -21.99441 -45.95639 30115 ft 417 kts 214°
2026-05-07 00:50 -22.01795 -45.97500 28961 ft 425 kts 215°
2026-05-07 00:50 -22.04176 -45.99387 28178 ft 423 kts 215°
2026-05-07 00:50 -22.06512 -46.01241 27944 ft 409 kts 215°
2026-05-07 00:50 -22.08796 -46.02988 27715 ft 395 kts 210°
2026-05-07 00:51 -22.11190 -46.04310 27474 ft 386 kts 204°
2026-05-07 00:51 -22.13677 -46.05501 27219 ft 385 kts 203°
2026-05-07 00:51 -22.16112 -46.06657 26970 ft 385 kts 203°
2026-05-07 00:51 -22.18592 -46.07851 26720 ft 384 kts 204°
2026-05-07 00:52 -22.20734 -46.08896 26499 ft 383 kts 204°
2026-05-07 00:52 -22.23167 -46.10094 26247 ft 383 kts 204°
2026-05-07 00:52 -22.25592 -46.11296 25994 ft 382 kts 204°
2026-05-07 00:52 -22.28009 -46.12499 25745 ft 381 kts 204°
2026-05-07 00:53 -22.30421 -46.13703 25495 ft 381 kts 204°
2026-05-07 00:53 -22.32830 -46.14908 25244 ft 380 kts 204°
2026-05-07 00:53 -22.35234 -46.16112 24992 ft 380 kts 204°
2026-05-07 00:53 -22.37603 -46.17300 24747 ft 379 kts 204°
2026-05-07 00:54 -22.39993 -46.18499 24495 ft 378 kts 204°
2026-05-07 00:54 -22.42381 -46.19698 24247 ft 377 kts 204°
2026-05-07 00:54 -22.44762 -46.20894 23996 ft 377 kts 204°
2026-05-07 00:54 -22.47146 -46.22094 23749 ft 377 kts 204°
2026-05-07 00:55 -22.49525 -46.23289 23500 ft 376 kts 204°
2026-05-07 00:55 -22.51903 -46.24485 23254 ft 376 kts 204°
2026-05-07 00:55 -22.54282 -46.25683 23004 ft 376 kts 204°
2026-05-07 00:55 -22.56657 -46.26879 22753 ft 375 kts 204°
2026-05-07 00:56 -22.59026 -46.28072 22509 ft 375 kts 204°
2026-05-07 00:56 -22.61365 -46.29250 22269 ft 374 kts 204°
2026-05-07 00:56 -22.63727 -46.30441 22023 ft 373 kts 204°
2026-05-07 00:56 -22.66090 -46.31632 21584 ft 374 kts 204°
2026-05-07 00:57 -22.68454 -46.32825 20976 ft 375 kts 204°
2026-05-07 00:57 -22.70833 -46.34026 20369 ft 376 kts 204°
2026-05-07 00:57 -22.73213 -46.35228 19767 ft 377 kts 203°
2026-05-07 00:57 -22.75596 -46.36430 19162 ft 378 kts 203°
2026-05-07 00:58 -22.77986 -46.37638 18562 ft 379 kts 203°
2026-05-07 00:58 -22.80346 -46.38831 17969 ft 380 kts 203°
2026-05-07 00:58 -22.82744 -46.40044 17370 ft 380 kts 203°
2026-05-07 00:58 -22.85148 -46.41259 16764 ft 381 kts 203°
2026-05-07 00:59 -22.89964 -46.43695 15566 ft 382 kts 203°
2026-05-07 00:59 -22.92371 -46.44915 14970 ft 382 kts 203°
2026-05-07 00:59 -22.94777 -46.46134 14373 ft 382 kts 203°
2026-05-07 01:00 -22.97187 -46.47356 13773 ft 382 kts 203°
2026-05-07 01:00 -22.99599 -46.48578 13261 ft 379 kts 203°
2026-05-07 01:00 -23.01929 -46.49760 13069 ft 368 kts 203°
2026-05-07 01:00 -23.04218 -46.50923 12885 ft 357 kts 203°
2026-05-07 01:01 -23.06444 -46.52054 12673 ft 348 kts 203°
2026-05-07 01:01 -23.08626 -46.53161 12327 ft 344 kts 203°
2026-05-07 01:01 -23.10812 -46.54269 11927 ft 342 kts 203°
2026-05-07 01:01 -23.12972 -46.55365 11528 ft 340 kts 204°
2026-05-07 01:02 -23.15115 -46.56454 11141 ft 338 kts 204°
2026-05-07 01:02 -23.17222 -46.57525 10752 ft 336 kts 204°
2026-05-07 01:02 -23.19343 -46.58603 10364 ft 334 kts 204°
2026-05-07 01:02 -23.20795 -46.59343 10090 ft 333 kts 204°
2026-05-07 01:03 -23.21794 -46.59851 9897 ft 333 kts 204°
2026-05-07 01:03 -23.24169 -46.61060 9447 ft 331 kts 204°
2026-05-07 01:03 -23.26044 -46.62017 9088 ft 329 kts 204°
2026-05-07 01:03 -23.28103 -46.63068 8604 ft 323 kts 204°
2026-05-07 01:04 -23.30108 -46.64090 8277 ft 310 kts 204°
2026-05-07 01:04 -23.31996 -46.65054 8126 ft 289 kts 204°
2026-05-07 01:04 -23.33780 -46.65964 7989 ft 266 kts 204°
2026-05-07 01:04 -23.35420 -46.66801 7751 ft 251 kts 204°
2026-05-07 01:05 -23.36585 -46.67396 7569 ft 241 kts 204°
2026-05-07 01:05 -23.37390 -46.67807 7468 ft 237 kts 204°
2026-05-07 01:05 -23.38871 -46.68562 7266 ft 231 kts 204°
2026-05-07 01:05 -23.40326 -46.69304 7036 ft 229 kts 204°
2026-05-07 01:06 -23.41758 -46.69993 6907 ft 222 kts 194°
2026-05-07 01:06 -23.43259 -46.69959 6721 ft 212 kts 152°
2026-05-07 01:06 -23.44303 -46.68907 6444 ft 205 kts 117°
2026-05-07 01:06 -23.44768 -46.67955 6276 ft 205 kts 114°
2026-05-07 01:07 -23.45072 -46.67298 6161 ft 205 kts 115°
2026-05-07 01:07 -23.46523 -46.64533 5703 ft 204 kts 120°
2026-05-07 01:07 -23.47265 -46.63204 5473 ft 202 kts 109°
2026-05-07 01:08 -23.47401 -46.61788 5269 ft 184 kts 82°
2026-05-07 01:08 -23.47115 -46.60460 4903 ft 178 kts 73°
2026-05-07 01:08 -23.46742 -46.59186 4454 ft 178 kts 72°
2026-05-07 01:08 -23.46380 -46.57941 4130 ft 169 kts 73°
2026-05-07 01:09 -23.46048 -46.56742 3900 ft 157 kts 74°
2026-05-07 01:09 -23.45753 -46.55647 3696 ft 146 kts 74°
2026-05-07 01:09 -23.45470 -46.54592 3520 ft 144 kts 74°
2026-05-07 01:09 -23.45191 -46.53558 3350 ft 143 kts 74°
2026-05-07 01:10 -23.44913 -46.52522 3169 ft 143 kts 75°
2026-05-07 01:10 -23.44633 -46.51476 2983 ft 142 kts 74°
2026-05-07 01:10 -23.44353 -46.50452 2798 ft 141 kts 74°
2026-05-07 01:10 -23.44076 -46.49429 2630 ft 140 kts 74°
2026-05-07 01:11 -23.43804 -46.48414 2471 ft 137 kts 74°
2026-05-07 01:11 -23.43568 -46.47538 2468 ft 98 kts 74°
2026-05-07 01:11 -23.43430 -46.47025 2469 ft 33 kts 73°
2026-05-07 01:11 -23.43301 -46.46858 2469 ft 27 kts 44°
2026-05-07 01:12 -23.43177 -46.46732 2469 ft 21 kts 36°
2026-05-07 01:12 -23.43038 -46.46735 2469 ft 19 kts 343°
2026-05-07 01:12 -23.42914 -46.46775 2469 ft 17 kts 343°
2026-05-07 01:12 -23.42812 -46.46807 2469 ft 14 kts 344°
2026-05-07 01:13 -23.42781 -46.46890 2469 ft 13 kts 253°
2026-05-07 01:13 -23.42808 -46.46987 2469 ft 15 kts 254°
2026-05-07 01:13 -23.42841 -46.47107 2469 ft 16 kts 253°
2026-05-07 01:13 -23.42872 -46.47223 2469 ft 15 kts 254°
2026-05-07 01:14 -23.42902 -46.47333 2469 ft 16 kts 254°
2026-05-07 01:14 -23.42933 -46.47448 2469 ft 15 kts 253°
2026-05-07 01:14 -23.42962 -46.47554 2469 ft 14 kts 253°
2026-05-07 01:14 -23.42989 -46.47656 2469 ft 15 kts 254°
2026-05-07 01:15 -23.43020 -46.47770 2469 ft 15 kts 253°
2026-05-07 01:15 -23.43049 -46.47877 2469 ft 14 kts 254°
2026-05-07 01:15 -23.43075 -46.47974 2469 ft 12 kts 254°
2026-05-07 01:15 -23.43099 -46.48061 2468 ft 11 kts 253°
2026-05-07 01:16 -23.43077 -46.48128 2469 ft 10 kts 341°
2026-05-07 01:16 -23.43007 -46.48136 2469 ft 9 kts 355°
2026-05-07 01:16 -23.42935 -46.48143 2469 ft 10 kts 355°
2026-05-07 01:16 -23.42865 -46.48150 2469 ft 9 kts 355°
2026-05-07 01:17 -23.42810 -46.48172 2469 ft 8 kts 292°
2026-05-07 01:17 -23.42810 -46.48230 2469 ft 6 kts 265°
2026-05-07 01:17 -23.42811 -46.48245 2469 ft 0 kts 265°